ACA290 CYTZ-KORD

Flight info

Callsign ACA290
Flight time 0h 45m
Altitude 36000
Route PERLO4 DERLO Q935 HOCKE DCT FNT WYNDE2
Aircraft B738/M-SDGIJ1LRWY/SB1

Departure

Time 2026-05-05 14:20
Airport Billy Bishop Toronto City Airport (CYTZ)

Arrival

Time 2026-05-05 15:06
Airport Chicago O'Hare International Airport (KORD)
Time Latitude Longitude Altitude Speed Heading
2026-05-05 14:18 43.63084 -79.38959 241 ft 0 kts 251°
2026-05-05 14:20 43.63084 -79.38963 240 ft 5 kts 251°
2026-05-05 14:20 43.62964 -79.39416 238 ft 107 kts 251°
2026-05-05 14:20 43.62691 -79.40565 513 ft 165 kts 252°
2026-05-05 14:20 43.62525 -79.41833 1705 ft 163 kts 276°
2026-05-05 14:21 43.62887 -79.42902 2902 ft 153 kts 309°
2026-05-05 14:21 43.63644 -79.43716 3779 ft 161 kts 308°
2026-05-05 14:21 43.64070 -79.44816 4515 ft 161 kts 270°
2026-05-05 14:21 43.63788 -79.46043 5253 ft 173 kts 232°
2026-05-05 14:22 43.62477 -79.46838 6392 ft 198 kts 198°
2026-05-05 14:22 43.61694 -79.47007 6926 ft 205 kts 200°
2026-05-05 14:22 43.60487 -79.47495 7721 ft 213 kts 209°
2026-05-05 14:22 43.59417 -79.48295 8525 ft 218 kts 220°
2026-05-05 14:23 43.58412 -79.49377 9439 ft 221 kts 225°
2026-05-05 14:23 43.57451 -79.50561 10461 ft 221 kts 227°
2026-05-05 14:23 43.56504 -79.51771 11303 ft 229 kts 227°
2026-05-05 14:23 43.55531 -79.53019 12075 ft 240 kts 227°
2026-05-05 14:24 43.54453 -79.54385 12742 ft 256 kts 226°
2026-05-05 14:24 43.53297 -79.55828 13407 ft 271 kts 226°
2026-05-05 14:24 43.52062 -79.57359 14083 ft 285 kts 226°
2026-05-05 14:24 43.50769 -79.58967 14675 ft 301 kts 226°
2026-05-05 14:25 43.49401 -79.60671 15282 ft 316 kts 226°
2026-05-05 14:25 43.47957 -79.62470 15885 ft 330 kts 226°
2026-05-05 14:25 43.46446 -79.64349 16371 ft 347 kts 226°
2026-05-05 14:25 43.44907 -79.66267 16857 ft 363 kts 225°
2026-05-05 14:26 43.43292 -79.68276 17457 ft 375 kts 225°
2026-05-05 14:26 43.41638 -79.70327 18298 ft 380 kts 225°
2026-05-05 14:26 43.39974 -79.72385 19149 ft 384 kts 225°
2026-05-05 14:26 43.38283 -79.74479 19916 ft 390 kts 225°
2026-05-05 14:27 43.36570 -79.76597 20735 ft 394 kts 225°
2026-05-05 14:27 43.34798 -79.78787 21497 ft 400 kts 225°
2026-05-05 14:27 43.33044 -79.80956 22258 ft 404 kts 225°
2026-05-05 14:27 43.31287 -79.83128 22966 ft 409 kts 225°
2026-05-05 14:28 43.29476 -79.85399 23804 ft 410 kts 227°
2026-05-05 14:28 43.27803 -79.87739 24409 ft 415 kts 231°
2026-05-05 14:28 43.26288 -79.90391 25148 ft 416 kts 238°
2026-05-05 14:28 43.25034 -79.93280 25862 ft 418 kts 244°
2026-05-05 14:29 43.24023 -79.96378 26569 ft 420 kts 250°
2026-05-05 14:29 43.23235 -79.99580 27277 ft 422 kts 254°
2026-05-05 14:29 43.22600 -80.02881 28217 ft 418 kts 257°
2026-05-05 14:29 43.22072 -80.06157 29534 ft 407 kts 258°
2026-05-05 14:30 43.21601 -80.09362 30663 ft 398 kts 260°
2026-05-05 14:30 43.21156 -80.12526 31293 ft 399 kts 260°
2026-05-05 14:30 43.20711 -80.15739 31495 ft 405 kts 260°
2026-05-05 14:30 43.20264 -80.18952 31499 ft 400 kts 260°
2026-05-05 14:31 43.19352 -80.25379 31505 ft 398 kts 259°
2026-05-05 14:31 43.18423 -80.31799 31502 ft 400 kts 259°
2026-05-05 14:32 43.10775 -80.82926 31540 ft 399 kts 258°
2026-05-05 14:32 43.06029 -81.15291 31531 ft 398 kts 265°
2026-05-05 14:33 43.06210 -81.21834 31525 ft 400 kts 275°
2026-05-05 14:33 43.07128 -81.28433 31530 ft 401 kts 279°
2026-05-05 14:34 43.08242 -81.35327 31526 ft 401 kts 279°
2026-05-05 14:34 43.19448 -82.14208 31572 ft 395 kts 276°
2026-05-05 14:35 43.25610 -82.70194 31700 ft 383 kts 275°
2026-05-05 14:35 43.25925 -82.73769 31542 ft 379 kts 271°
2026-05-05 14:35 43.25610 -82.80935 31544 ft 379 kts 260°
2026-05-05 14:36 43.21934 -82.98901 31531 ft 379 kts 255°
2026-05-05 14:36 43.00671 -84.02740 31609 ft 379 kts 255°
2026-05-05 14:37 42.99688 -84.07160 31672 ft 391 kts 253°
2026-05-05 14:37 42.97263 -84.17590 33305 ft 395 kts 255°
2026-05-05 14:37 42.87904 -84.58364 35581 ft 398 kts 256°
2026-05-05 14:37 42.87295 -84.61919 35751 ft 381 kts 262°
2026-05-05 14:38 42.81390 -85.09211 35941 ft 376 kts 262°
2026-05-05 14:38 42.74858 -85.59953 35652 ft 370 kts 261°
2026-05-05 14:38 42.68502 -86.05670 35885 ft 368 kts 260°
2026-05-05 14:38 42.67971 -86.09090 35859 ft 373 kts 258°
2026-05-05 14:39 42.55384 -86.68205 35859 ft 370 kts 254°
2026-05-05 14:39 42.41781 -87.24537 35588 ft 372 kts 255°
2026-05-05 14:40 42.40950 -87.27832 35070 ft 368 kts 253°
2026-05-05 14:40 42.40088 -87.31042 34338 ft 368 kts 253°
2026-05-05 14:40 42.39201 -87.34267 33360 ft 373 kts 252°
2026-05-05 14:40 42.38285 -87.37580 32289 ft 385 kts 251°
2026-05-05 14:41 42.37342 -87.40980 31338 ft 387 kts 252°
2026-05-05 14:41 42.36408 -87.44337 30438 ft 384 kts 252°
2026-05-05 14:41 42.35528 -87.47442 29573 ft 382 kts 250°
2026-05-05 14:41 42.34445 -87.50668 28660 ft 380 kts 246°
2026-05-05 14:42 42.33002 -87.53654 27733 ft 382 kts 237°
2026-05-05 14:42 42.31192 -87.56261 26819 ft 385 kts 229°
2026-05-05 14:42 42.28476 -87.59392 25515 ft 386 kts 225°
2026-05-05 14:42 42.27082 -87.60885 24865 ft 396 kts 225°
2026-05-05 14:43 42.24887 -87.63185 24144 ft 406 kts 224°
2026-05-05 14:43 42.22790 -87.65356 23520 ft 407 kts 223°
2026-05-05 14:43 42.20583 -87.67625 22831 ft 399 kts 223°
2026-05-05 14:43 42.18415 -87.69850 22143 ft 390 kts 223°
2026-05-05 14:44 42.16528 -87.71795 21623 ft 379 kts 223°
2026-05-05 14:44 42.14812 -87.73668 21266 ft 374 kts 226°
2026-05-05 14:44 42.13270 -87.75794 21071 ft 378 kts 233°
2026-05-05 14:44 42.11954 -87.78288 20860 ft 379 kts 241°
2026-05-05 14:45 42.10755 -87.80917 20628 ft 381 kts 237°
2026-05-05 14:45 42.09118 -87.83194 20392 ft 391 kts 223°
2026-05-05 14:45 42.07022 -87.84808 20076 ft 389 kts 208°
2026-05-05 14:45 42.04705 -87.85533 19770 ft 388 kts 192°
2026-05-05 14:46 42.02401 -87.85358 19473 ft 391 kts 177°
2026-05-05 14:46 42.00166 -87.84341 19019 ft 398 kts 162°
2026-05-05 14:46 41.98331 -87.82758 18356 ft 411 kts 148°
2026-05-05 14:46 41.96673 -87.80379 17651 ft 423 kts 132°
2026-05-05 14:47 41.95543 -87.77670 16981 ft 431 kts 117°
2026-05-05 14:47 41.94837 -87.74174 16211 ft 437 kts 100°
2026-05-05 14:47 41.94832 -87.70436 15421 ft 438 kts 83°
2026-05-05 14:47 41.95644 -87.66556 14560 ft 435 kts 64°
2026-05-05 14:48 41.97210 -87.63182 13706 ft 426 kts 47°
2026-05-05 14:48 41.99028 -87.60523 12921 ft 420 kts 42°
2026-05-05 14:48 42.00848 -87.57477 12054 ft 421 kts 54°
2026-05-05 14:48 42.02154 -87.54271 11244 ft 420 kts 62°
2026-05-05 14:49 42.03359 -87.50735 10378 ft 418 kts 64°
2026-05-05 14:49 42.04410 -87.47457 9587 ft 416 kts 65°
2026-05-05 14:49 42.05563 -87.43898 8712 ft 411 kts 62°
2026-05-05 14:49 42.06879 -87.40562 7954 ft 402 kts 57°
2026-05-05 14:50 42.08174 -87.37639 7593 ft 385 kts 56°
2026-05-05 14:50 42.09508 -87.34590 7207 ft 370 kts 62°
2026-05-05 14:50 42.10265 -87.31385 6722 ft 360 kts 81°
2026-05-05 14:50 42.10209 -87.28148 5978 ft 340 kts 103°
2026-05-05 14:51 42.09351 -87.25333 5254 ft 322 kts 125°
2026-05-05 14:51 42.07851 -87.23264 4528 ft 306 kts 149°
2026-05-05 14:51 42.05936 -87.22207 3782 ft 292 kts 173°
2026-05-05 14:51 42.03989 -87.22308 3042 ft 278 kts 199°
2026-05-05 14:52 42.02338 -87.23487 2332 ft 263 kts 227°
2026-05-05 14:52 42.01409 -87.25407 2142 ft 231 kts 257°
2026-05-05 14:52 42.01222 -87.26590 2159 ft 214 kts 266°
2026-05-05 14:53 42.01188 -87.26963 2164 ft 211 kts 268°
2026-05-05 14:54 42.01057 -87.28912 2168 ft 206 kts 269°
2026-05-05 14:54 42.00915 -87.30810 2168 ft 207 kts 263°
2026-05-05 14:54 42.00349 -87.32617 2175 ft 212 kts 242°
2026-05-05 14:54 41.99609 -87.34305 2170 ft 212 kts 247°
2026-05-05 14:55 41.98944 -87.36771 2172 ft 207 kts 262°
2026-05-05 14:55 41.98785 -87.38034 2172 ft 208 kts 266°
2026-05-05 14:55 41.98140 -87.47558 2178 ft 206 kts 277°
2026-05-05 14:55 41.98403 -87.49432 2181 ft 205 kts 283°
2026-05-05 14:56 41.98612 -87.51320 2198 ft 204 kts 276°
2026-05-05 14:56 41.98671 -87.53190 2178 ft 205 kts 272°
2026-05-05 14:56 41.98685 -87.55063 2174 ft 204 kts 272°
2026-05-05 14:56 41.98696 -87.56990 2177 ft 206 kts 272°
2026-05-05 14:57 41.98707 -87.58813 2181 ft 206 kts 272°
2026-05-05 14:57 41.98716 -87.60695 2181 ft 206 kts 272°
2026-05-05 14:57 41.98725 -87.62534 2181 ft 205 kts 272°
2026-05-05 14:57 41.98734 -87.64239 2183 ft 205 kts 272°
2026-05-05 14:58 41.98742 -87.65662 2183 ft 206 kts 272°
2026-05-05 14:59 41.98748 -87.67015 2185 ft 206 kts 272°
2026-05-05 15:00 41.98750 -87.67776 2185 ft 206 kts 272°
2026-05-05 15:01 41.98754 -87.68874 2186 ft 206 kts 271°
2026-05-05 15:01 41.98762 -87.70569 2187 ft 206 kts 272°
2026-05-05 15:01 41.98768 -87.72139 2183 ft 196 kts 272°
2026-05-05 15:01 41.98770 -87.73133 2182 ft 184 kts 272°
2026-05-05 15:02 41.98772 -87.73706 2180 ft 178 kts 271°
2026-05-05 15:02 41.98779 -87.75107 2179 ft 163 kts 272°
2026-05-05 15:02 41.98783 -87.76367 2179 ft 149 kts 272°
2026-05-05 15:03 41.98788 -87.77535 2182 ft 144 kts 272°
2026-05-05 15:03 41.98793 -87.78688 2174 ft 145 kts 272°
2026-05-05 15:03 41.98797 -87.79845 2038 ft 145 kts 272°
2026-05-05 15:03 41.98800 -87.80904 1881 ft 143 kts 272°
2026-05-05 15:04 41.98803 -87.82002 1785 ft 139 kts 272°
2026-05-05 15:04 41.98807 -87.83146 1562 ft 142 kts 271°
2026-05-05 15:04 41.98809 -87.84316 1385 ft 145 kts 270°
2026-05-05 15:04 41.98811 -87.85486 1212 ft 145 kts 271°
2026-05-05 15:05 41.98839 -87.87840 897 ft 136 kts 272°
2026-05-05 15:05 41.98843 -87.88989 735 ft 142 kts 269°
2026-05-05 15:05 41.98827 -87.90173 661 ft 134 kts 269°
2026-05-05 15:06 41.98820 -87.91105 655 ft 72 kts 272°
2026-05-05 15:06 41.98812 -87.91412 659 ft 0 kts 250°
2026-05-05 15:06 41.98798 -87.91464 660 ft 0 kts 244°
2026-05-05 15:06 41.98786 -87.91495 661 ft 10 kts 242°
2026-05-05 15:07 41.98772 -87.91531 662 ft 0 kts 243°
2026-05-05 15:07 41.98761 -87.91560 662 ft 9 kts 242°
2026-05-05 15:07 41.98709 -87.91682 665 ft 22 kts 241°
2026-05-05 15:07 41.98686 -87.91791 667 ft 0 kts 246°
2026-05-05 15:08 41.98675 -87.91779 667 ft 7 kts 100°
2026-05-05 15:08 41.98680 -87.91655 664 ft 22 kts 87°
2026-05-05 15:08 41.98683 -87.91404 659 ft 34 kts 91°
2026-05-05 15:08 41.98676 -87.91065 658 ft 43 kts 91°
2026-05-05 15:09 41.98673 -87.90673 655 ft 45 kts 90°
2026-05-05 15:09 41.98674 -87.90458 655 ft 21 kts 88°
2026-05-05 15:09 41.98678 -87.90263 655 ft 23 kts 88°
2026-05-05 15:09 41.98680 -87.90055 655 ft 25 kts 90°
2026-05-05 15:10 41.98680 -87.89835 655 ft 26 kts 90°
2026-05-05 15:10 41.98675 -87.89597 655 ft 28 kts 107°
2026-05-05 15:10 41.98529 -87.89494 655 ft 28 kts 179°
2026-05-05 15:10 41.98342 -87.89500 655 ft 29 kts 180°
2026-05-05 15:11 41.98172 -87.89502 655 ft 0 kts 181°
2026-05-05 15:11 41.98171 -87.89501 655 ft 0 kts 162°
2026-05-05 15:11 41.98166 -87.89490 655 ft 4 kts 114°
2026-05-05 15:11 41.98147 -87.89423 655 ft 12 kts 121°
2026-05-05 15:12 41.98105 -87.89294 654 ft 20 kts 89°
2026-05-05 15:12 41.98219 -87.89249 653 ft 26 kts 335°
2026-05-05 15:12 41.98284 -87.89472 655 ft 32 kts 273°
2026-05-05 15:12 41.98292 -87.89774 657 ft 38 kts 271°
2026-05-05 15:13 41.98294 -87.90236 659 ft 42 kts 267°
2026-05-05 15:13 41.98292 -87.90484 661 ft 34 kts 269°
2026-05-05 15:13 41.98251 -87.90582 661 ft 0 kts 196°
2026-05-05 15:13 41.98248 -87.90582 661 ft 1 kts 176°
2026-05-05 15:14 41.98221 -87.90576 661 ft 4 kts 173°
2026-05-05 15:14 41.98204 -87.90575 661 ft 0 kts 179°